FW0979 Weather Reports


Display with metric or nautical units.
time (UTC)temp
F
wind
direction
speed
MPH
gust
MPH
rain 1hr
in
rain 24hr
in
rain mn
in
humidity
%
barometer
mb
20260507183002 69 183 3.0 6.0 0.00 0.00 0.00 43 1014.6
20260507181502 68 264 3.0 9.0 0.00 0.00 0.00 44 1015.1
20260507180101 69 177 2.0 9.0 0.00 0.00 0.00 43 1015.4
20260507180001 69 184 2.0 9.0 0.00 0.00 0.00 43 1015.4
20260507174601 68 148 3.0 7.0 0.00 0.00 0.00 44 1015.8
20260507173103 67 129 2.0 7.0 0.00 0.00 0.00 45 1016.1
20260507171556 67 220 2.0 7.0 0.00 0.00 0.00 47 1016.3
20260507170054 65 217 3.0 7.0 0.00 0.00 0.00 47 1016.6
20260507164551 65 200 2.0 6.0 0.00 0.00 0.00 48 1016.8
20260507163046 61 360 3.0 8.0 0.00 0.00 0.00 53 1017.0
20260507161551 61 180 3.0 8.0 0.00 0.00 0.00 52 1017.2
20260507160042 59 116 3.0 8.0 0.00 0.00 0.00 55 1017.3
20260507154542 59 91 4.0 9.0 0.00 0.00 0.00 55 1017.5
20260507153038 58 63 3.0 8.0 0.00 0.00 0.00 56 1017.6
20260507151538 56 129 3.0 8.0 0.00 0.00 0.00 59 1017.7
20260507150036 56 94 5.0 10.0 0.00 0.00 0.00 59 1017.8
20260507144536 55 107 3.0 10.0 0.00 0.00 0.00 60 1017.9
20260507143033 54 360 4.0 10.0 0.00 0.00 0.00 62 1017.9
20260507141531 54 79 4.0 8.0 0.00 0.00 0.00 64 1017.9
20260507140034 53 360 5.0 10.0 0.00 0.00 0.00 66 1017.9
20260507134526 52 360 6.0 11.0 0.00 0.00 0.00 67 1017.7
20260507133024 51 360 7.0 13.0 0.00 0.00 0.00 68 1017.5
20260507131521 51 360 6.0 11.0 0.00 0.00 0.00 69 1017.3
20260507130020 50 360 6.0 11.0 0.00 0.00 0.00 69 1017.1
20260507124515 49 79 5.0 9.0 0.00 0.00 0.00 69 1017.2
20260507123021 49 83 6.0 10.0 0.00 0.00 0.00 69 1017.1
20260507121509 49 73 7.0 12.0 0.00 0.00 0.00 69 1016.8
20260507120006 49 360 7.0 15.0 0.00 0.00 0.00 69 1016.8
20260507114503 49 85 7.0 12.0 0.00 0.00 0.00 70 1016.6
20260507113058 49 98 9.0 17.0 0.00 0.00 0.00 70 1016.4
20260507111552 50 76 6.0 14.0 0.00 0.00 0.00 71 1016.3
20260507110057 50 95 7.0 15.0 0.00 0.00 0.00 71 1016.2
20260507104550 50 100 7.0 12.0 0.00 0.00 0.00 70 1016.2
20260507103101 51 82 7.0 14.0 0.00 0.00 0.00 69 1015.9
20260507101539 51 360 7.0 14.0 0.00 0.00 0.00 68 1015.9
20260507100031 52 79 9.0 15.0 0.00 0.00 0.00 67 1015.8
20260507094531 52 86 7.0 14.0 0.00 0.00 0.00 67 1015.8
20260507093022 53 360 11.0 18.0 0.00 0.00 0.00 66 1015.6
20260507091519 53 74 7.0 13.0 0.00 0.00 0.00 65 1015.5
20260507090012 53 96 8.0 13.0 0.00 0.00 0.00 65 1015.3
20260507084529 53 65 7.0 14.0 0.00 0.00 0.00 64 1015.3
20260507083006 53 360 9.0 15.0 0.00 0.00 0.00 64 1015.4
20260507081501 54 82 8.0 17.0 0.00 0.00 0.00 63 1015.2
20260507080056 54 96 9.0 15.0 0.00 0.00 0.00 62 1015.1
20260507074552 55 86 11.0 17.0 0.00 0.00 0.00 61 1015.0
20260507073045 56 360 10.0 17.0 0.00 0.00 0.00 61 1015.1
20260507071541 56 68 9.0 17.0 0.00 0.00 0.00 61 1015.0
20260507070053 56 84 9.0 14.0 0.00 0.00 0.00 61 1014.3
20260507064527 57 63 9.0 16.0 0.00 0.00 0.00 58 1013.6
20260507063019 58 141 8.0 16.0 0.00 0.00 0.00 57 1013.0
20260507061513 59 108 6.0 10.0 0.00 0.00 0.00 57 1012.9
20260507060012 59 360 7.0 15.0 0.00 0.00 0.00 56 1012.6
20260507054503 60 360 9.0 16.0 0.00 0.00 0.00 55 1012.3
20260507053001 61 134 8.0 16.0 0.00 0.00 0.00 54 1012.1
20260507051602 62 113 7.0 12.0 0.00 0.00 0.00 53 1012.0
20260507050100 62 111 7.0 14.0 0.00 0.00 0.00 52 1011.8
20260507050002 62 360 7.0 14.0 0.00 0.00 0.00 51 1011.9
20260507044600 64 135 6.0 12.0 0.00 0.00 0.00 47 1011.7
20260507043056 65 155 2.0 11.0 0.00 0.00 0.00 44 1011.5
20260507041603 67 105 4.0 8.0 0.00 0.00 0.00 40 1011.3
20260507040054 68 316 3.0 9.0 0.00 0.00 0.00 26 1011.1
20260507034552 66 122 6.0 12.0 0.00 0.00 0.00 32 1010.7
20260507033053 66 281 2.0 5.0 0.00 0.00 0.00 26 1010.3
20260507031551 67 285 1.0 3.0 0.00 0.00 0.00 27 1010.0
20260507030051 68 285 1.0 3.0 0.00 0.00 0.00 27 1009.7
20260507024553 70 285 1.0 3.0 0.00 0.00 0.00 23 1009.7
20260507023049 71 285 2.0 5.0 0.00 0.00 0.00 18 1009.4
20260507021601 72 283 4.0 8.0 0.00 0.00 0.00 18 1009.1
20260507020106 73 283 5.0 9.0 0.00 0.00 0.00 18 1008.9
20260507014616 74 291 7.0 12.0 0.00 0.00 0.00 17 1008.8
20260507013050 76 293 7.0 14.0 0.00 0.00 0.00 16 1008.6
20260507011556 77 285 11.0 17.0 0.00 0.00 0.00 15 1008.3
20260507010047 78 283 7.0 14.0 0.00 0.00 0.00 14 1008.2
20260507004545 78 283 11.0 18.0 0.00 0.00 0.00 14 1008.1
20260507003044 79 283 13.0 20.0 0.00 0.00 0.00 13 1007.9
20260507001558 79 280 8.0 18.0 0.00 0.00 0.00 13 1007.7
20260507000056 79 264 14.0 25.0 0.00 0.00 0.00 13 1007.6
20260506234601 80 360 9.0 19.0 0.00 0.00 0.00 13 1007.5
20260506233047 80 285 15.0 21.0 0.00 0.00 0.00 13 1007.6
20260506231543 81 266 13.0 27.0 0.00 0.00 0.00 12 1007.4
20260506230041 80 273 10.0 19.0 0.00 0.00 0.00 13 1007.2
20260506224539 80 279 16.0 23.0 0.00 0.00 0.00 13 1007.1
20260506223138 80 264 13.0 29.0 0.00 0.00 0.00 13 1007.1
20260506221550 80 279 17.0 25.0 0.00 0.00 0.00 12 1007.4
20260506220043 81 264 11.0 20.0 0.00 0.00 0.00 13 1007.3
20260506214533 80 360 8.0 21.0 0.00 0.00 0.00 14 1007.4
20260506213040 80 259 14.0 24.0 0.00 0.00 0.00 14 1007.7
20260506211540 80 219 11.0 19.0 0.00 0.00 0.00 16 1007.9
20260506210035 79 281 13.0 30.0 0.00 0.00 0.00 19 1008.2
20260506204531 79 276 9.0 21.0 0.00 0.00 0.00 20 1008.4
20260506203021 77 360 11.0 23.0 0.00 0.00 0.00 20 1008.6
20260506201523 77 291 15.0 23.0 0.00 0.00 0.00 20 1008.8
20260506200018 76 360 7.0 14.0 0.00 0.00 0.00 23 1008.8
20260506194517 76 267 10.0 18.0 0.00 0.00 0.00 21 1009.1
20260506193018 75 231 7.0 14.0 0.00 0.00 0.00 27 1008.9
20260506191510 74 360 2.0 9.0 0.00 0.00 0.00 32 1009.1
20260506190010 74 337 3.0 9.0 0.00 0.00 0.00 32 1009.5
20260506184507 74 304 3.0 7.0 0.00 0.00 0.00 34 1009.9